RANA Weather Reports


Display with metric or nautical units.
time (UTC)temp
F
wind
direction
speed
MPH
gust
MPH
rain 1hr
in
rain 24hr
in
rain mn
in
humidity
%
barometer
mb
20260901113010 66 256 9.0 11.0 0.00 0.00 0.00 56
20260901112511 66 271 9.0 11.0 0.00 0.00 0.00 55
20260901112010 66 273 13.0 16.0 0.00 0.00 0.00 55
20260901111510 66 264 11.0 13.0 0.00 0.00 0.00 55
20260901111011 64 280 20.0 22.0 0.00 0.00 0.00 56
20260901110511 66 259 18.0 20.0 0.00 0.00 0.00 55
20260901110010 66 255 16.0 18.0 0.00 0.00 0.00 56
20260901105510 66 280 13.0 16.0 0.00 0.00 0.00 56
20260901105011 64 256 9.0 11.0 0.00 0.00 0.00 58
20260901104510 66 277 20.0 22.0 0.00 0.00 0.00 54
20260901104010 68 248 11.0 13.0 0.00 0.00 0.00 55
20260901103511 66 254 13.0 16.0 0.00 0.00 0.00 57
20260901103010 66 250 11.0 13.0 0.00 0.00 0.00 59
20260901102511 64 246 13.0 16.0 0.00 0.00 0.00 58
20260901102009 64 253 9.0 11.0 0.00 0.00 0.00 58
20260901101511 64 270 18.0 25.0 0.00 0.00 0.00 58
20260901101010 64 274 13.0 16.0 0.00 0.00 0.00 58
20260901100518 64 276 13.0 16.0 0.00 0.00 0.00 59
20260901100011 64 261 13.0 16.0 0.00 0.00 0.00 59
20260901095510 64 266 13.0 16.0 0.00 0.00 0.00 56
20260901095010 64 276 16.0 18.0 0.00 0.00 0.00 58
20260901094511 64 268 13.0 16.0 0.00 0.00 0.00 60
20260901094010 64 273 16.0 18.0 0.00 0.00 0.00 58
20260901093510 64 267 16.0 18.0 0.00 0.00 0.00 58
20260901093011 64 265 16.0 18.0 0.00 0.00 0.00 58
20260901092510 64 270 13.0 18.0 0.00 0.00 0.00 59
20260901092012 64 292 18.0 20.0 0.00 0.00 0.00 58
20260901091510 64 288 11.0 16.0 0.00 0.00 0.00 58
20260901091011 64 297 16.0 18.0 0.00 0.00 0.00 58
20260901090510 64 278 18.0 20.0 0.00 0.00 0.00 58
20260901090010 64 290 20.0 27.0 0.00 0.00 0.00 58
20260901085511 64 276 20.0 25.0 0.00 0.00 0.00 58
20260901085010 64 289 16.0 18.0 0.00 0.00 0.00 60
20260901084510 64 288 11.0 13.0 0.00 0.00 0.00 62
20260901084011 64 300 18.0 20.0 0.00 0.00 0.00 60
20260901083511 64 287 16.0 20.0 0.00 0.00 0.00 61
20260901083011 64 297 18.0 22.0 0.00 0.00 0.00 61
20260901082511 63 282 20.0 25.0 0.00 0.00 0.00 62
20260901082010 63 290 20.0 22.0 0.00 0.00 0.00 64
20260901081510 63 287 13.0 18.0 0.00 0.00 0.00 64
20260901081010 63 275 16.0 18.0 0.00 0.00 0.00 67
20260901080511 63 278 13.0 16.0 0.00 0.00 0.00 67
20260901080011 61 293 11.0 13.0 0.00 0.00 0.00 68
20260901075510 61 282 16.0 20.0 0.00 0.00 0.00 68
20260901075011 61 277 20.0 22.0 0.00 0.00 0.00 68
20260901074510 61 290 18.0 18.0 0.00 0.00 0.00 67
20260901074010 61 284 16.0 16.0 0.00 0.00 0.00 68
20260901073510 63 282 16.0 20.0 0.00 0.00 0.00 69
20260901073011 63 277 20.0 25.0 0.00 0.00 0.00 67
20260901072509 61 296 18.0 20.0 0.00 0.00 0.00 67
20260901072016 61 281 22.0 25.0 0.00 0.00 0.00 67
20260901071511 61 284 18.0 22.0 0.00 0.00 0.00 69
20260901071010 61 275 18.0 20.0 0.00 0.00 0.00 69
20260901070518 61 276 20.0 22.0 0.00 0.00 0.00 70
20260901070011 61 280 18.0 20.0 0.00 0.00 0.00 71
20260901065511 61 282 16.0 18.0 0.00 0.00 0.00 71
20260901065011 61 278 16.0 18.0 0.00 0.00 0.00 72
20260901064511 61 283 16.0 18.0 0.00 0.00 0.00 74
20260901064010 61 285 9.0 11.0 0.00 0.00 0.00 74
20260901063510 61 281 9.0 9.0 0.00 0.00 0.00 75
20260901063011 59 287 9.0 11.0 0.00 0.00 0.00 79
20260901062510 59 273 11.0 11.0 0.00 0.00 0.00 77
20260901062011 59 268 11.0 13.0 0.00 0.00 0.00 75
20260901061510 59 260 13.0 16.0 0.00 0.00 0.00 74
20260901061010 61 259 11.0 11.0 0.00 0.00 0.00 74
20260901060510 61 252 11.0 11.0 0.00 0.00 0.00 74
20260901060011 59 262 11.0 13.0 0.00 0.00 0.00 76
20260901055511 59 269 9.0 11.0 0.00 0.00 0.00 77
20260901055011 59 278 7.0 9.0 0.00 0.00 0.00 78
20260901054510 57 277 11.0 11.0 0.00 0.00 0.00 78
20260901054011 57 274 11.0 13.0 0.00 0.00 0.00 78
20260901053511 57 277 16.0 18.0 0.00 0.00 0.00 77
20260901053010 57 275 18.0 20.0 0.00 0.00 0.00 79
20260901052511 57 277 18.0 18.0 0.00 0.00 0.00 81
20260901052010 57 275 18.0 20.0 0.00 0.00 0.00 81
20260901051510 57 274 20.0 22.0 0.00 0.00 0.00 80
20260901051010 57 274 22.0 25.0 0.00 0.00 0.00 81
20260901050510 55 274 20.0 22.0 0.00 0.00 0.00 81
20260901050010 55 275 20.0 22.0 0.00 0.00 0.00 81
20260901045510 57 274 20.0 22.0 0.00 0.00 0.00 81
20260901045011 57 276 20.0 22.0 0.00 0.00 0.00 80
20260901044510 55 272 22.0 25.0 0.00 0.00 0.00 81
20260901044010 57 275 22.0 22.0 0.00 0.00 0.00 80
20260901043510 57 273 25.0 25.0 0.00 0.00 0.00 80
20260901043011 55 270 22.0 22.0 0.00 0.00 0.00 81
20260901042509 55 269 22.0 25.0 0.00 0.00 0.00 82
20260901042010 55 266 20.0 22.0 0.00 0.00 0.00 82
20260901041511 55 269 20.0 22.0 0.00 0.00 0.00 83
20260901041010 55 265 22.0 25.0 0.00 0.00 0.00 82
20260901040510 55 268 20.0 22.0 0.00 0.00 0.00 82
20260901040011 55 269 20.0 25.0 0.00 0.00 0.00 83
20260901035510 55 268 20.0 22.0 0.00 0.00 0.00 83
20260901035010 55 269 22.0 25.0 0.00 0.00 0.00 83
20260901034511 55 272 18.0 20.0 0.00 0.00 0.00 83
20260901034011 55 270 22.0 25.0 0.00 0.00 0.00 82
20260901033510 55 267 22.0 25.0 0.00 0.00 0.00 81
20260901033011 55 259 20.0 22.0 0.00 0.00 0.00 81
20260901032511 57 257 20.0 22.0 0.00 0.00 0.00 80
20260901032012 57 260 22.0 22.0 0.00 0.00 0.00 80
20260901031510 57 258 20.0 22.0 0.00 0.00 0.00 80
20260901031010 57 257 18.0 20.0 0.00 0.00 0.00 80
20260901030511 57 258 18.0 20.0 0.00 0.00 0.00 79
20260901030011 57 262 20.0 22.0 0.00 0.00 0.00 79
20260901025511 57 261 18.0 18.0 0.00 0.00 0.00 79
20260901025010 57 263 18.0 18.0 0.00 0.00 0.00 79
20260901024510 57 266 18.0 20.0 0.00 0.00 0.00 78
20260901024011 57 266 18.0 20.0 0.00 0.00 0.00 79
20260901023511 57 266 18.0 18.0 0.00 0.00 0.00 79
20260901023010 57 268 18.0 20.0 0.00 0.00 0.00 78
20260901022510 57 265 20.0 20.0 0.00 0.00 0.00 79
20260901022015 57 271 20.0 20.0 0.00 0.00 0.00 79
20260901021510 57 272 18.0 20.0 0.00 0.00 0.00 80
20260901021010 57 271 20.0 22.0 0.00 0.00 0.00 80
20260901020510 57 271 25.0 27.0 0.00 0.00 0.00 79
20260901020011 57 272 22.0 22.0 0.00 0.00 0.00 80
20260901015511 57 275 20.0 22.0 0.00 0.00 0.00 80
20260901015010 57 271 20.0 22.0 0.00 0.00 0.00 80
20260901014511 57 270 20.0 22.0 0.00 0.00 0.00 80
20260901014011 57 270 20.0 22.0 0.00 0.00 0.00 79
20260901013510 57 267 18.0 20.0 0.00 0.00 0.00 79
20260901013011 57 273 20.0 20.0 0.00 0.00 0.00 78
20260901012510 57 273 20.0 22.0 0.00 0.00 0.00 78
20260901012010 57 272 22.0 22.0 0.00 0.00 0.00 78
20260901011511 57 272 22.0 25.0 0.00 0.00 0.00 77
20260901011010 57 271 22.0 25.0 0.00 0.00 0.00 77
20260901010510 57 269 22.0 22.0 0.00 0.00 0.00 76
20260901010010 59 264 22.0 25.0 0.00 0.00 0.00 76
20260901005511 59 263 18.0 20.0 0.00 0.00 0.00 76
20260901005010 59 260 20.0 20.0 0.00 0.00 0.00 76
20260901004510 59 261 20.0 22.0 0.00 0.00 0.00 76
20260901004010 59 266 20.0 22.0 0.00 0.00 0.00 76
20260901003510 59 266 22.0 25.0 0.00 0.00 0.00 76
20260901003011 59 268 22.0 25.0 0.00 0.00 0.00 76
20260901002510 57 266 22.0 25.0 0.00 0.00 0.00 76
20260901002011 59 268 22.0 25.0 0.00 0.00 0.00 76
20260901001510 59 266 22.0 25.0 0.00 0.00 0.00 75
20260901001010 59 268 22.0 25.0 0.00 0.00 0.00 75
20260901000511 59 267 22.0 25.0 0.00 0.00 0.00 75
20260901000011 59 262 22.0 25.0 0.00 0.00 0.00 75
20260831235511 59 268 22.0 27.0 0.00 0.00 0.00 75
20260831235010 59 271 20.0 22.0 0.00 0.00 0.00 76
20260831234511 59 262 20.0 20.0 0.00 0.00 0.00 75
20260831234010 59 263 22.0 22.0 0.00 0.00 0.00 74
20260831233511 59 275 22.0 25.0 0.00 0.00 0.00 73
20260831233011 59 272 22.0 27.0 0.00 0.00 0.00 73
20260831232511 59 266 20.0 22.0 0.00 0.00 0.00 73
20260831232010 59 267 25.0 27.0 0.00 0.00 0.00 72
20260831231511 59 266 25.0 27.0 0.00 0.00 0.00 72
20260831231011 59 271 22.0 27.0 0.00 0.00 0.00 71
20260831230510 59 265 22.0 25.0 0.00 0.00 0.00 71
20260831230010 59 257 20.0 25.0 0.00 0.00 0.00 70
20260831225510 61 251 20.0 22.0 0.00 0.00 0.00 69
20260831225010 61 245 18.0 20.0 0.00 0.00 0.00 68
20260831224511 61 247 18.0 20.0 0.00 0.00 0.00 67
20260831224010 61 253 20.0 25.0 0.00 0.00 0.00 67
20260831223510 61 263 22.0 22.0 0.00 0.00 0.00 67
20260831223011 61 268 25.0 27.0 0.00 0.00 0.00 67
20260831222510 61 268 29.0 31.0 0.00 0.00 0.00 66
20260831222011 61 265 29.0 34.0 0.00 0.00 0.00 66
20260831221511 61 261 27.0 29.0 0.00 0.00 0.00 66
20260831221011 61 265 25.0 27.0 0.00 0.00 0.00 66
20260831220511 61 263 25.0 31.0 0.00 0.00 0.00 65
20260831220010 61 259 25.0 29.0 0.00 0.00 0.00 65
20260831215511 63 258 20.0 27.0 0.00 0.00 0.00 65
20260831215010 63 252 22.0 25.0 0.00 0.00 0.00 63
20260831214511 63 238 16.0 16.0 0.00 0.00 0.00 61
20260831214010 63 235 13.0 16.0 0.00 0.00 0.00 62
20260831213511 63 256 9.0 9.0 0.00 0.00 0.00 63
20260831213010 63 279 7.0 9.0 0.00 0.00 0.00 62
20260831212510 63 293 7.0 11.0 0.00 0.00 0.00 63
20260831212012 63 292 7.0 9.0 0.00 0.00 0.00 63
20260831211511 63 290 9.0 11.0 0.00 0.00 0.00 63
20260831211010 63 288 11.0 11.0 0.00 0.00 0.00 62
20260831210511 63 282 9.0 11.0 0.00 0.00 0.00 63
20260831210010 63 289 11.0 16.0 0.00 0.00 0.00 63
20260831205511 63 296 11.0 11.0 0.00 0.00 0.00 64
20260831205010 63 291 11.0 13.0 0.00 0.00 0.00 65
20260831204511 64 277 16.0 18.0 0.00 0.00 0.00 60
20260831204010 64 268 16.0 18.0 0.00 0.00 0.00 58
20260831203510 64 269 16.0 18.0 0.00 0.00 0.00 58
20260831203018 64 265 18.0 18.0 0.00 0.00 0.00 57
20260831202510 64 260 18.0 18.0 0.00 0.00 0.00 55
20260831202015 66 254 18.0 20.0 0.00 0.00 0.00 54
20260831201510 64 255 16.0 18.0 0.00 0.00 0.00 56
20260831201013 64 252 13.0 16.0 0.00 0.00 0.00 56
20260831200510 66 261 16.0 18.0 0.00 0.00 0.00 54
20260831200011 66 258 16.0 18.0 0.00 0.00 0.00 54
20260831195510 66 253 13.0 16.0 0.00 0.00 0.00 56
20260831195011 66 254 16.0 18.0 0.00 0.00 0.00 54
20260831194511 66 249 16.0 18.0 0.00 0.00 0.00 54
20260831194011 66 254 16.0 16.0 0.00 0.00 0.00 56
20260831193511 66 251 13.0 16.0 0.00 0.00 0.00 58
20260831193010 66 258 16.0 16.0 0.00 0.00 0.00 58
20260831192511 66 260 16.0 16.0 0.00 0.00 0.00 59
20260831192010 66 266 16.0 16.0 0.00 0.00 0.00 59
20260831191510 66 268 13.0 16.0 0.00 0.00 0.00 59
20260831191011 66 269 16.0 18.0 0.00 0.00 0.00 58
20260831190510 66 270 18.0 18.0 0.00 0.00 0.00 57
20260831190010 66 267 16.0 18.0 0.00 0.00 0.00 57
20260831185511 66 264 13.0 16.0 0.00 0.00 0.00 57
20260831185010 66 269 11.0 13.0 0.00 0.00 0.00 58
20260831184511 66 268 11.0 13.0 0.00 0.00 0.00 58
20260831184010 66 274 11.0 11.0 0.00 0.00 0.00 58
20260831183510 66 277 13.0 16.0 0.00 0.00 0.00 57
20260831183011 68 277 13.0 16.0 0.00 0.00 0.00 57
20260831182511 68 264 13.0 16.0 0.00 0.00 0.00 57
20260831182013 66 273 16.0 16.0 0.00 0.00 0.00 57
20260831181511 66 273 16.0 18.0 0.00 0.00 0.00 57
20260831181010 66 278 16.0 18.0 0.00 0.00 0.00 58
20260831180510 68 274 18.0 20.0 0.00 0.00 0.00 57
20260831180011 68 277 18.0 22.0 0.00 0.00 0.00 56
20260831175510 68 273 18.0 20.0 0.00 0.00 0.00 56
20260831175010 68 274 16.0 16.0 0.00 0.00 0.00 55
20260831174510 68 269 16.0 18.0 0.00 0.00 0.00 54
20260831174011 68 270 16.0 16.0 0.00 0.00 0.00 54
20260831173510 68 268 16.0 16.0 0.00 0.00 0.00 55
20260831173011 68 270 16.0 18.0 0.00 0.00 0.00 54
20260831172510 68 269 13.0 18.0 0.00 0.00 0.00 53
20260831172016 70 271 13.0 16.0 0.00 0.00 0.00 52
20260831171511 70 274 16.0 18.0 0.00 0.00 0.00 51
20260831171010 70 270 18.0 20.0 0.00 0.00 0.00 51
20260831170511 68 271 18.0 18.0 0.00 0.00 0.00 52
20260831170011 68 271 18.0 20.0 0.00 0.00 0.00 53
20260831165510 68 269 20.0 22.0 0.00 0.00 0.00 52
20260831165010 68 273 18.0 20.0 0.00 0.00 0.00 52
20260831164510 70 273 18.0 20.0 0.00 0.00 0.00 52
20260831164010 70 279 13.0 18.0 0.00 0.00 0.00 52
20260831163510 70 274 20.0 22.0 0.00 0.00 0.00 49
20260831163011 70 275 18.0 18.0 0.00 0.00 0.00 50
20260831162512 70 274 18.0 20.0 0.00 0.00 0.00 50
20260831162010 70 269 18.0 20.0 0.00 0.00 0.00 50
20260831161511 70 273 20.0 22.0 0.00 0.00 0.00 49
20260831161010 72 275 22.0 22.0 0.00 0.00 0.00 49
20260831160511 72 285 22.0 27.0 0.00 0.00 0.00 48
20260831160010 72 274 18.0 22.0 0.00 0.00 0.00 51
20260831155511 72 270 20.0 22.0 0.00 0.00 0.00 49
20260831155010 70 266 18.0 22.0 0.00 0.00 0.00 51
20260831154510 70 272 27.0 27.0 0.00 0.00 0.00 49
20260831154011 70 275 25.0 27.0 0.00 0.00 0.00 49
20260831153511 70 278 27.0 31.0 0.00 0.00 0.00 49
20260831153010 70 274 29.0 34.0 0.00 0.00 0.00 48
20260831152510 72 274 25.0 29.0 0.00 0.00 0.00 50
20260831152015 72 272 25.0 27.0 0.00 0.00 0.00 49
20260831151518 72 266 22.0 27.0 0.00 0.00 0.00 48
20260831151009 72 255 22.0 25.0 0.00 0.00 0.00 48
20260831150511 72 279 20.0 25.0 0.00 0.00 0.00 49
20260831150010 72 261 20.0 27.0 0.00 0.00 0.00 51
20260831145510 72 265 20.0 22.0 0.00 0.00 0.00 51
20260831145010 72 256 20.0 25.0 0.00 0.00 0.00 50
20260831144510 72 262 27.0 29.0 0.00 0.00 0.00 50
20260831144010 72 263 27.0 31.0 0.00 0.00 0.00 49
20260831143510 70 269 25.0 27.0 0.00 0.00 0.00 51
20260831143011 72 275 25.0 29.0 0.00 0.00 0.00 50
20260831142511 70 272 27.0 31.0 0.00 0.00 0.00 50
20260831142010 72 259 22.0 29.0 0.00 0.00 0.00 50
20260831141511 70 268 27.0 29.0 0.00 0.00 0.00 50
20260831141010 72 263 29.0 31.0 0.00 0.00 0.00 48
20260831140510 72 265 18.0 20.0 0.00 0.00 0.00 52
20260831140010 70 267 25.0 27.0 0.00 0.00 0.00 51
20260831135510 70 272 27.0 31.0 0.00 0.00 0.00 48
20260831135011 72 272 20.0 22.0 0.00 0.00 0.00 51
20260831134510 72 267 25.0 29.0 0.00 0.00 0.00 49
20260831134010 72 281 20.0 25.0 0.00 0.00 0.00 52
20260831133510 70 274 27.0 31.0 0.00 0.00 0.00 50
20260831133011 70 262 18.0 18.0 0.00 0.00 0.00 52
20260831132511 70 270 20.0 25.0 0.00 0.00 0.00 52
20260831132009 70 276 22.0 25.0 0.00 0.00 0.00 51
20260831131510 70 281 18.0 20.0 0.00 0.00 0.00 54
20260831131009 70 284 22.0 27.0 0.00 0.00 0.00 53
20260831130510 70 276 22.0 25.0 0.00 0.00 0.00 53
20260831130013 70 282 25.0 25.0 0.00 0.00 0.00 55
20260831125511 70 282 25.0 29.0 0.00 0.00 0.00 53
20260831125011 70 274 20.0 22.0 0.00 0.00 0.00 56
20260831124510 70 268 22.0 25.0 0.00 0.00 0.00 54
20260831124010 70 263 22.0 25.0 0.00 0.00 0.00 58
20260831123510 68 266 22.0 25.0 0.00 0.00 0.00 58
20260831123011 68 264 27.0 29.0 0.00 0.00 0.00 55
20260831122511 70 251 27.0 31.0 0.00 0.00 0.00 54
20260831122014 70 254 27.0 31.0 0.00 0.00 0.00 54
20260831121511 70 253 20.0 22.0 0.00 0.00 0.00 57
20260831121011 70 265 27.0 31.0 0.00 0.00 0.00 55
20260831120510 70 264 27.0 31.0 0.00 0.00 0.00 53
20260831120011 70 260 25.0 29.0 0.00 0.00 0.00 54
20260831115510 70 259 27.0 31.0 0.00 0.00 0.00 56
20260831115017 70 263 29.0 34.0 0.00 0.00 0.00 57
20260831114510 70 252 29.0 31.0 0.00 0.00 0.00 54
20260831114010 70 266 31.0 36.0 0.00 0.00 0.00 55
20260831113510 70 266 31.0 36.0 0.00 0.00 0.00 54